Weather History for Jackson, KY

Change the Weather History Date:

Friday, January 25, 2013

  Actual Average Record
Temperature  
Mean Temperature 25 °F 35 °F  
Max Temperature 31 °F 44 °F 69 °F (1989)
Min Temperature 19 °F 27 °F 6 °F (2008)
Degree Days  
Heating Degree Days 40 30  
Month to date heating degree days 707 750  
Since 1 July heating degree days 2315 2384  
Cooling Degree Days 0 0  
Month to date cooling degree days 0 0  
Year to date cooling degree days 0 0  
Moisture  
Dew Point 21 °F    
Average Humidity 75    
Maximum Humidity 100    
Minimum Humidity 49    
Precipitation  
Precipitation 0.11 in 0.12 in 0.51 in (1987)
Month to date precipitation 3.41 2.88  
Year to date precipitation 3.41 2.88  
Snow  
Snow T in 0.20 in - ()
Month to date snowfall 0.2 5.5  
Since 1 July snowfall 3.1 11.0  
Snow Depth T in    
Sea Level Pressure  
Sea Level Pressure 30.11 in    
Wind  
Wind Speed 3 mph (West)    
Max Wind Speed 9 mph    
Max Gust Speed 17 mph    
Visibility 4 miles    
Events Fog , Rain , Snow    
T = Trace of Precipitation, MM = Missing Value Source: NWS Daily Summary

Daily Weather History Graph

Daily Weather History Graph

Search for Another Location

Airport:

Trip Planner

Search our weather history database for the weather conditions in past years. The results will help you decide how hot, cold, wet, or windy it might be!

Date:

Astronomy

Jan. 25, 2013 Rise Set
Actual Time 7:41 AM EST 5:49 PM EST
Civil Twilight 7:13 AM EST 6:17 PM EST
Nautical Twilight 6:42 AM EST 6:49 PM EST
Astronomical Twilight 6:11 AM EST 7:20 PM EST
Moon 4:45 PM EST (1/25) 6:20 AM EST (1/25)
Length of Visible Light 11h 03m
Length of Day
10h 07m
Waxing Gibbous, 98% of the Moon is Illuminated
Jan 25
Waxing Gibbous
Jan 26
Full
Feb 3
Last Quarter
Feb 10
New
Feb 17
First Quarter

Hourly Weather History & Observations

Time (EST) Temp. Windchill Dew Point Humidity Pressure Visibility Wind Dir Wind Speed Gust Speed Precip Events Conditions
12:53 AM 19.0 °F 13.9 °F 3.9 °F 52% 30.40 in 10.0 mi NE 3.5 mph - N/A   Clear
1:53 AM 19.0 °F 13.9 °F 3.9 °F 52% 30.36 in 10.0 mi Variable 3.5 mph - N/A   Clear
2:53 AM 19.0 °F - 5.0 °F 54% 30.34 in 10.0 mi Calm Calm - N/A   Clear
3:53 AM 19.0 °F - 6.1 °F 57% 30.32 in 10.0 mi Calm Calm - N/A   Clear
4:53 AM 19.9 °F 14.9 °F 6.1 °F 55% 30.27 in 10.0 mi Variable 3.5 mph - N/A   Overcast
5:53 AM 19.9 °F - 7.0 °F 57% 30.23 in 10.0 mi Calm Calm - N/A   Overcast
6:53 AM 21.0 °F - 7.0 °F 55% 30.23 in 10.0 mi Calm Calm - N/A   Overcast
7:53 AM 19.0 °F - 10.0 °F 68% 30.19 in 10.0 mi Calm Calm - 0.01 in   Overcast
8:34 AM 19.4 °F 14.3 °F 12.2 °F 74% 30.11 in 7.0 mi Variable 3.5 mph - 0.00 in   Overcast
8:53 AM 19.0 °F - 12.9 °F 77% 30.16 in 10.0 mi Calm Calm - 0.00 in   Overcast
9:06 AM 19.4 °F 14.3 °F 14.0 °F 80% 30.10 in 2.5 mi SE 3.5 mph - 0.00 in Rain Light Freezing Rain
9:20 AM 19.4 °F - 15.8 °F 86% 30.11 in 4.0 mi Calm Calm - 0.01 in Snow Light Snow
9:53 AM 19.9 °F - 17.1 °F 89% 30.14 in 5.0 mi Calm Calm - 0.03 in Snow Light Snow
10:17 AM 19.4 °F - 17.6 °F 93% 30.08 in 3.0 mi Calm Calm - 0.01 in Rain Light Freezing Rain
10:28 AM 21.2 °F - 19.4 °F 93% 30.08 in 3.0 mi Calm Calm - 0.01 in   Overcast
10:48 AM 21.2 °F - 19.4 °F 93% 30.08 in 2.5 mi Calm Calm - 0.01 in Rain Light Freezing Rain
10:53 AM 21.0 °F - 19.0 °F 92% 30.14 in 2.5 mi Calm Calm - 0.01 in Rain Light Freezing Rain
11:00 AM 21.2 °F - 19.4 °F 93% 30.08 in 1.5 mi Calm Calm - 0.00 in Rain Light Freezing Rain
11:20 AM 21.2 °F - 19.4 °F 93% 30.08 in 1.8 mi Calm Calm - 0.01 in Rain Light Freezing Rain
11:28 AM 23.0 °F - 19.4 °F 86% 30.08 in 2.5 mi Calm Calm - 0.01 in Rain Light Freezing Rain
11:33 AM 21.2 °F 16.4 °F 19.4 °F 93% 30.08 in 3.0 mi NW 3.5 mph - 0.01 in Rain Light Freezing Rain
11:40 AM 21.2 °F 16.4 °F 21.2 °F 100% 30.09 in 2.0 mi WNW 3.5 mph - 0.01 in Rain Light Freezing Rain
11:45 AM 21.2 °F - 21.2 °F 100% 30.09 in 1.5 mi Calm Calm - 0.01 in Rain Light Freezing Rain
11:53 AM 23.0 °F - 21.9 °F 96% 30.13 in 1.2 mi Calm Calm - 0.02 in Rain Light Freezing Rain
12:01 PM 23.0 °F - 21.2 °F 93% 30.07 in 0.8 mi Calm Calm - 0.00 in Rain Light Freezing Rain
12:13 PM 24.8 °F - 21.2 °F 86% 30.06 in 1.0 mi Calm Calm - 0.01 in Rain Light Freezing Rain
12:25 PM 23.0 °F - 21.2 °F 93% 30.05 in 0.8 mi Calm Calm - 0.01 in Rain Light Freezing Rain
12:39 PM 24.8 °F 19.1 °F 23.0 °F 93% 30.04 in 1.2 mi South 4.6 mph - 0.02 in Rain Light Freezing Rain
12:53 PM 24.1 °F - 23.0 °F 96% 30.09 in 1.5 mi Calm Calm - 0.02 in Rain Light Freezing Rain
1:03 PM 24.8 °F 20.5 °F 23.0 °F 93% 30.03 in 1.8 mi SSW 3.5 mph - 0.00 in   Overcast
1:11 PM 24.8 °F - 23.0 °F 93% 30.03 in 2.0 mi Calm Calm - 0.00 in   Overcast
1:32 PM 24.8 °F 20.5 °F 24.8 °F 100% 30.01 in 1.5 mi Variable 3.5 mph - 0.00 in   Overcast
1:53 PM 26.1 °F 20.5 °F 25.0 °F 96% 30.05 in 1.0 mi Variable 4.6 mph - 0.00 in   Mist
2:38 PM 28.4 °F 21.2 °F 28.4 °F 100% 30.01 in 1.0 mi Variable 6.9 mph - 0.00 in Rain Light Freezing Rain
2:53 PM 30.0 °F 24.1 °F 28.9 °F 96% 30.06 in 1.0 mi Variable 5.8 mph - 0.00 in Rain Light Freezing Rain
3:21 PM 30.2 °F 25.4 °F 28.4 °F 93% 30.00 in 0.5 mi Variable 4.6 mph - 0.01 in Fog , Rain Light Freezing Rain
3:33 PM 30.2 °F 24.3 °F 28.4 °F 93% 30.00 in 1.5 mi Variable 5.8 mph - 0.01 in Rain Light Freezing Rain
3:42 PM 30.2 °F 26.7 °F 28.4 °F 93% 30.01 in 1.8 mi Variable 3.5 mph - 0.01 in   Overcast
3:53 PM 30.0 °F 25.2 °F 28.9 °F 96% 30.06 in 1.5 mi Variable 4.6 mph - 0.01 in   Overcast
4:25 PM 30.2 °F 24.3 °F 28.4 °F 93% 30.03 in 1.8 mi WSW 5.8 mph - N/A   Overcast
4:34 PM 30.2 °F 26.7 °F 28.4 °F 93% 30.02 in 1.0 mi Variable 3.5 mph - N/A   Overcast
4:42 PM 30.2 °F 25.4 °F 28.4 °F 93% 30.03 in 0.8 mi Variable 4.6 mph - N/A   Mist
4:53 PM 30.0 °F 24.1 °F 28.9 °F 96% 30.08 in 0.2 mi WNW 5.8 mph - N/A Fog Light Freezing Fog
5:45 PM 30.2 °F 24.3 °F 28.4 °F 93% 30.05 in 1.8 mi WNW 5.8 mph - N/A   Overcast
5:53 PM 30.0 °F 24.1 °F 28.9 °F 96% 30.09 in 1.8 mi West 5.8 mph - N/A   Overcast
6:04 PM 30.2 °F 25.4 °F 28.4 °F 93% 30.05 in 2.0 mi Variable 4.6 mph - 0.01 in   Overcast
6:53 PM 30.0 °F 25.2 °F 28.9 °F 96% 30.11 in 2.0 mi WSW 4.6 mph - 0.01 in   Overcast
7:40 PM 28.4 °F 23.3 °F 28.4 °F 100% 30.09 in 1.8 mi Variable 4.6 mph - N/A   Overcast
7:53 PM 28.9 °F 25.2 °F 28.0 °F 96% 30.14 in 2.0 mi Variable 3.5 mph - N/A   Overcast
8:18 PM 28.4 °F 24.6 °F 28.4 °F 100% 30.10 in 4.0 mi Variable 3.5 mph - N/A   Overcast
8:53 PM 28.9 °F 22.8 °F 28.0 °F 96% 30.15 in 6.0 mi WSW 5.8 mph - N/A   Overcast
9:53 PM 30.0 °F 24.1 °F 28.0 °F 92% 30.17 in 5.0 mi Variable 5.8 mph - N/A   Overcast
10:53 PM 28.9 °F 21.9 °F 28.0 °F 96% 30.18 in 5.0 mi WSW 6.9 mph - N/A   Overcast
11:53 PM 28.9 °F 23.9 °F 28.0 °F 96% 30.20 in 3.0 mi WNW 4.6 mph - N/A   Overcast